Powrót do katalogu

STARLINK-36253

AktywnyŁącznośćSSO
NORAD 68028·PAYLOAD·🇺🇸 United States

Wystrzelony Mar 1, 2026 z Vandenberg Space Force Base

Loading…

Następne Przeloty (najbliższe 24 godziny)

TLE

ŚwieżeSource: CelesTrak SupGP

Epoka: Sep 14, 2026, 22:24 UTC

1 68028C 26040P   26257.93381944  .00129940  00000+0  22070-2 0  2573
2 68028  97.2808 205.4405 0006644  95.4763 277.9411 15.51404983    16

Śledź STARLINK-36253 w czasie rzeczywistym z AllMySat

Download on the App Store